Location: Chiroubles
(46.1812°N, 4.6660°E)
Time: 05:10:09
(UTC+00:00)

Cosmos 1805 Rocket - Visible Passes

Search period start: 26 November 2020 00:00
Search period end: 06 December 2020 00:00
Orbit: 607 x 629 km, 82.5° (Epoch: 25 November)

Date Brightness Start Highest point End Pass type
(mag) Time Alt. Az. Time Alt. Az. Time Alt. Az.
26 Nov 3.8 06:01:40 10° S 06:06:05 78° E 06:10:33 10° NNE visible
26 Nov 5.5 17:45:36 10° NNW 17:49:35 32° W 17:53:31 10° SSW visible
27 Nov 6.7 04:43:21 10° ESE 04:45:45 15° E 04:48:10 10° NE visible
27 Nov 3.6 06:18:42 10° SSW 06:23:04 59° WNW 06:27:29 10° N visible
27 Nov 3.9 16:24:33 10° N 16:28:51 44° ENE 16:33:05 10° SSE visible
27 Nov 6.4 18:03:14 10° NW 18:06:20 19° W 18:09:26 10° SW visible
28 Nov 6.0 04:58:52 10° SE 05:02:28 25° E 05:06:06 10° NNE visible
28 Nov 3.5 16:41:24 10° N 16:45:53 80° E 16:50:18 10° SSE visible
28 Nov 7.0 18:22:00 10° WNW 18:23:00 11° W 18:23:59 10° W visible
29 Nov 4.8 05:15:04 10° SSE 05:19:15 43° E 05:23:30 10° NNE visible
29 Nov 4.3 16:58:26 10° NNW 17:02:49 57° W 17:07:08 10° S visible
30 Nov 3.7 05:31:43 10° S 05:36:09 79° E 05:40:38 10° NNE visible
30 Nov 5.6 17:15:42 10° NNW 17:19:39 32° W 17:23:34 10° SSW visible
01 Dec 6.6 04:13:21 10° ESE 04:15:50 15° E 04:18:17 10° NE visible
01 Dec 3.6 05:48:46 10° SSW 05:53:08 58° WNW 05:57:34 10° N visible
01 Dec 6.5 17:33:20 10° NW 17:36:24 19° W 17:39:27 10° SW visible
02 Dec 5.8 04:28:54 10° SE 04:32:32 25° E 04:36:11 10° NNE visible
02 Dec 4.2 06:06:13 10° SW 06:10:13 33° WNW 06:14:17 10° N visible
02 Dec 7.0 17:52:16 10° WNW 17:53:03 10° W 17:53:51 10° W visible
03 Dec 4.7 04:45:07 10° SSE 04:49:20 44° E 04:53:35 10° NNE visible
03 Dec 4.9 06:24:08 10° WSW 06:27:25 20° WNW 06:30:43 10° NNW visible
03 Dec 4.4 16:28:31 10° NNW 16:32:53 56° W 16:37:11 10° S visible
04 Dec 3.6 05:01:47 10° S 05:06:14 80° E 05:10:43 10° N visible
04 Dec 5.6 16:45:48 10° NNW 16:49:43 31° W 16:53:36 10° SSW visible
05 Dec 6.5 03:43:21 10° ESE 03:45:53 15° E 03:48:25 10° NE visible
05 Dec 3.6 05:18:51 10° SSW 05:23:13 57° WNW 05:27:38 10° N visible
05 Dec 6.5 17:03:27 10° NW 17:06:28 18° W 17:09:27 10° SW visible
